Weather in Krasnomajskij

Russia / Novosibirsk Oblast     54°59′42″N   82°31′11″E
temp.,
°C
wind,
m/s
gust,
m/s
humid.,
%
clouds,
%
prec.,
mm/h
press.,
hPa
HPBL,
m
17 september, fri
fri1701:00+14ssw4115741 0.0 1006191
04:00+13s51364100 0.0 1005243
07:00+13s61560100 0.0 1004316
10:00+16sse71645100 0.0 1002421
13:00+21s81634100 0.2 999862
16:00+25ssw71426100 0.0 9972308
19:00+20sw4837100 0.0 996155
22:00+16wnw3558100 0.0 99685
18 september, sat
sat1801:00+13w61091100 0.7 996742
04:00+9w611815 5.7 999746
07:00+8wsw611885 5.7 1003405
10:00+9wsw711685 0.0 10061122
13:00+11wsw795296 0.0 10071659
16:00+10wsw6955100 0.0 10091532
19:00+9wsw5956100 0.0 1010907
22:00+9sw4959100 0.0 1010721
19 september, sun
sun1901:00+9ssw4960100 0.0 1009398
04:00+8ssw4964100 0.0 1008370
07:00+6ssw4974100 0.0 1007206
10:00+9s51058100 0.0 1006503
13:00+12sw7104793 0.0 10041464
16:00+13wsw795099 0.0 10041926
19:00+10wsw5960100 0.0 1005852
22:00+8w5973100 0.1 1006788
20 september, mon
mon2001:00+6wsw49785 0.1 1007297
04:00+6sw6126770 0.1 1007494
07:00+3wsw61370100 0.1 1008590
10:00+4wsw91170100 0.0 10091016
13:00+5sw81181100 0.3 10101129
16:00+5wsw81077100 0.9 10111164
19:00+4wsw71078100 1.3 1012919
22:00+2w49885 0.2 1014516
21 september, tue
tue2101:00+1w5109458 0.2 1015356
04:00+2wnw5887100 0.0 1017815
07:00+2w5996100 0.1 1020393
10:00+3wnw5990100 0.1 1022608
13:00+6wnw676798 0.3 10231236
16:00+6w6767100 0.3 10241242
19:00+5w477683 0.4 1025791
22:00+2w378675 0.1 1026172